Location: Lixville
(37.5770°N, 89.9118°W)
Time: 14:35:42
(UTC+00:00)

Courier 1B Rocket - Pass Details

Date: 08 November 2024
Orbit: 920 x 1201 km, 28.2° (Epoch: 02 December)

Event Time Altitude Azimuth Distance (km) Brightness Sun altitude
Rises 02:08:06 0° 255° (WSW) 3,549 8.7 -38.5°
Reaches altitude 10° 02:10:54 10° 247° (WSW) 2,603 7.8 -39.1°
Enters shadow 02:13:10 21° 233° (SW) 1,935 6.8 -39.5°
